Wind_Speed
21 22 21 20 22 27 27 24 22 19 18 20 22 24 25 25 25 24 24 25 25 25 25 25 24 24 23 22 22 21 20 19 19 19 19 19 18 18 19 20 21 21 22 22 21 20 19 20 21 22 23 23 24 24 23 22 21 21 20 20 20 21
19 20 19 18 18 21 21 19 18 18 20 22 24 25 25 25 24 24 24 25 25 25 25 25 25 24 23 22 22 22 21 20 19 18 18 18 18 18 19 20 21 21 22 22 21 20 20 19 20 22 23 24 24 25 24 24 22 22 22 21 21 21
16 16 16 16 17 19 19 19 20 21 24 25 25 25 24 24 24 24 24 24 25 25 25 25 25 23 22 22 22 22 21 20 19 18 17 17 17 18 18 19 20 21 21 21 21 20 19 19 19 20 22 24 25 26 25 25 24 23 23 23 22 22
15 14 14 15 15 17 18 20 21 23 25 25 25 24 23 23 23 23 24 24 25 25 25 25 24 23 22 22 21 21 21 20 19 17 17 17 17 18 18 19 20 20 20 20 21 20 19 18 18 19 20 23 25 26 26 26 25 24 24 25 24 23
12 12 13 13 13 15 18 20 22 24 25 24 24 23 23 23 23 23 24 25 25 25 24 24 23 22 22 22 21 21 20 20 18 17 17 17 17 17 17 18 19 20 20 20 21 20 19 18 17 18 20 21 24 26 27 27 26 25 25 26 26 25
11 11 12 13 13 14 17 20 22 23 23 23 23 22 22 22 23 24 24 25 24 24 23 23 22 22 21 21 21 20 20 19 18 17 17 16 16 17 17 18 18 19 19 20 20 20 20 19 18 18 19 20 22 25 27 27 27 26 26 26 26 27
10 11 13 14 15 16 17 19 20 21 21 21 21 21 22 23 24 24 24 24 24 23 23 22 21 21 21 21 20 20 19 19 17 16 16 16 16 17 17 17 17 17 18 19 19 20 20 19 18 18 18 19 21 24 26 27 27 26 25 26 26 27
9 10 14 16 17 18 18 19 19 19 19 20 21 21 22 23 23 23 23 23 23 23 22 21 21 21 21 20 20 20 19 19 17 16 16 15 16 16 16 16 15 15 17 18 18 18 18 18 18 17 17 18 19 22 25 27 27 26 25 25 25 27
8 10 14 16 17 18 18 18 18 18 20 20 21 21 22 22 22 21 21 21 22 22 22 21 21 20 20 19 19 19 19 19 17 16 16 16 16 16 16 15 15 15 16 17 17 17 17 17 17 16 16 17 18 21 25 27 28 28 27 25 25 26
7 9 13 15 16 17 17 17 18 19 19 19 19 19 19 20 20 20 20 20 21 21 21 21 20 20 19 18 18 18 18 18 17 17 16 16 16 16 16 15 15 15 16 16 16 16 16 16 16 15 15 16 18 22 25 27 27 28 28 28 27 27
6 10 13 15 16 17 18 18 19 19 18 18 18 18 18 18 18 19 19 19 20 20 20 21 20 19 18 17 17 17 17 17 17 17 18 17 17 16 16 16 16 16 16 16 16 17 17 17 16 15 15 16 18 21 25 26 26 27 28 28 29 29
6 11 14 16 17 18 18 18 18 18 17 17 17 17 17 18 19 19 19 19 19 19 20 22 21 19 18 17 17 17 17 17 18 19 19 19 18 17 17 17 16 16 16 16 17 17 17 17 16 15 15 15 16 19 21 22 22 23 26 27 29 29
10 11 13 16 15 15 15 16 17 16 16 16 17 17 18 19 19 20 20 19 19 20 21 22 20 18 18 18 17 17 18 18 19 20 20 19 18 18 17 17 16 16 16 16 17 17 17 17 17 15 14 14 15 16 18 19 20 22 24 26 27 27
10 11 12 13 12 12 14 15 16 16 16 17 18 18 19 19 20 20 20 20 19 20 21 20 19 18 18 18 17 17 18 19 20 19 19 18 17 17 17 17 16 16 16 16 17 17 17 17 17 16 15 14 14 14 16 18 19 20 21 23 24 25
11 13 13 12 11 12 15 16 16 16 17 17 18 18 18 19 19 20 20 20 19 19 20 19 18 18 17 17 17 17 19 20 20 18 17 17 16 17 18 17 17 16 16 17 17 17 17 17 17 16 15 15 14 14 15 16 18 19 20 20 21 22
12 13 12 11 11 13 15 16 16 16 16 15 16 16 17 17 18 18 19 19 19 18 18 18 17 17 17 17 17 17 18 20 19 18 16 16 17 18 18 18 16 16 16 17 17 18 18 18 17 16 16 16 15 15 15 16 17 18 19 19 19 20
10 11 10 10 11 13 16 16 15 15 15 15 15 15 16 16 17 18 18 19 19 18 18 17 16 16 17 17 17 17 18 19 19 18 16 16 18 19 19 18 16 16 16 17 18 18 18 19 18 18 17 17 17 16 16 16 17 18 19 19 19 19
8 8 8 8 10 14 16 16 15 14 14 14 15 15 15 16 16 17 18 18 18 18 17 16 15 15 16 16 17 17 18 18 18 17 17 17 19 20 19 18 17 17 17 17 18 17 17 18 18 18 18 18 18 17 17 18 18 18 19 19 20 20
4 4 4 6 10 14 16 16 15 14 14 14 15 14 14 14 15 16 17 18 18 17 17 16 15 15 15 16 16 16 17 17 16 16 17 18 20 20 19 19 18 17 18 18 18 17 17 17 18 18 18 18 17 18 18 19 19 20 20 20 21 21
2 2 3 6 10 13 15 16 15 14 14 14 14 13 13 13 13 15 16 17 17 17 17 17 16 15 15 16 16 16 16 16 16 17 17 18 20 20 20 20 17 15 16 17 18 17 17 17 17 18 18 18 18 18 19 19 20 21 21 21 22 22
3 2 3 7 10 13 15 16 15 15 14 13 13 13 13 13 13 13 14 16 16 17 17 17 17 16 16 16 16 16 16 16 16 17 18 19 20 20 21 20 16 14 15 17 18 17 17 17 17 17 18 18 18 18 18 19 20 21 21 21 21 22
6 4 5 8 11 13 16 17 16 15 14 14 13 13 13 13 13 12 13 14 15 16 16 17 17 16 16 16 17 17 17 17 17 17 18 19 20 21 21 19 17 17 16 17 19 18 17 17 17 17 18 18 18 19 19 19 20 21 21 20 20 22
8 6 7 10 12 15 17 17 17 17 15 14 14 13 12 13 13 12 12 12 14 15 16 16 17 17 17 16 17 17 18 18 18 18 18 19 20 21 21 20 19 19 18 18 20 20 18 18 18 17 18 19 18 19 19 20 20 21 20 20 20 21
9 8 9 11 14 16 17 18 18 18 17 15 14 14 12 12 12 12 11 12 13 14 15 16 16 17 17 17 17 17 17 18 19 19 19 20 21 22 22 22 21 20 20 20 20 20 20 20 19 19 20 20 19 19 19 19 20 20 21 20 20 20
11 11 11 13 15 16 17 18 18 18 17 17 16 14 12 11 11 11 11 12 12 14 15 16 16 17 18 18 18 17 17 18 19 20 21 22 23 23 23 23 22 22 22 22 21 21 22 22 20 20 21 20 20 20 19 19 20 20 20 20 21 21
13 13 13 13 15 16 17 17 17 17 17 18 17 14 12 11 12 11 11 12 14 15 16 17 17 17 17 18 19 18 18 18 19 20 21 22 23 24 24 24 24 24 24 24 24 23 23 22 21 22 22 20 20 21 21 20 20 20 20 20 22 21
15 15 14 15 16 17 17 17 17 16 16 18 17 14 11 12 13 11 10 12 14 17 18 19 19 18 17 18 19 20 20 19 20 20 21 22 23 23 24 25 25 25 25 25 25 25 24 23 22 22 22 21 21 21 22 22 21 21 20 21 22 21
16 16 16 15 16 17 17 17 17 17 16 17 18 16 14 13 14 13 10 10 13 17 19 20 20 19 18 18 19 20 21 20 20 20 20 21 22 22 23 24 24 25 25 25 25 25 24 23 22 22 22 22 22 22 24 24 22 21 21 22 23 22
15 15 15 15 15 16 17 17 18 18 17 18 18 18 17 16 15 14 11 11 13 16 19 21 21 20 19 18 19 21 21 21 21 20 20 20 20 21 21 22 22 23 23 24 24 24 24 23 22 22 22 22 23 24 25 24 23 23 23 23 24 24
14 15 16 16 16 17 18 19 19 19 19 19 18 18 19 18 17 16 16 18 18 16 17 20 21 20 19 18 18 20 21 22 21 21 20 19 19 19 19 20 20 20 21 21 22 22 23 22 22 22 22 22 24 25 24 24 24 24 24 24 24 25
15 16 17 18 18 19 20 21 21 20 21 20 18 17 18 18 18 19 20 22 19 15 15 17 18 19 19 18 18 19 20 21 22 21 20 19 18 18 17 18 18 18 19 20 21 21 22 22 22 22 22 23 25 25 24 25 25 25 24 24 25 26
17 18 19 21 21 22 23 23 23 21 20 20 18 18 19 19 19 19 19 19 16 13 13 14 15 17 17 17 17 18 19 20 21 20 20 18 17 17 16 17 17 17 17 18 19 20 21 21 21 22 22 22 23 25 25 25 26 26 26 26 26 27
21 22 22 24 24 25 24 24 23 22 21 20 19 19 20 20 20 18 17 15 13 12 13 13 14 15 16 16 16 17 17 18 19 19 18 17 17 16 16 16 16 16 16 17 18 18 19 19 20 20 20 21 22 23 24 24 25 26 26 27 27 28
23 23 22 23 23 22 21 21 21 22 21 18 17 19 20 21 19 17 15 14 13 13 14 14 13 13 14 15 15 16 16 17 17 16 16 16 16 16 15 15 15 14 15 16 16 16 17 17 17 18 18 19 20 21 22 23 24 25 26 27 27 28
23 21 20 21 21 20 20 20 21 21 20 19 18 20 20 20 18 15 13 12 13 13 13 13 13 13 14 15 14 14 15 16 15 15 14 14 15 15 15 15 14 14 14 15 15 16 16 16 15 15 16 16 17 18 19 20 21 23 24 25 26 26
21 18 19 22 22 21 19 17 17 18 18 19 19 20 20 19 18 15 12 11 13 13 13 14 14 14 15 15 15 14 14 15 15 14 14 14 14 15 15 15 15 15 15 15 15 16 16 16 15 15 14 14 15 16 16 17 18 19 20 21 22 22
19 17 18 19 17 16 13 10 11 14 15 17 17 17 19 19 18 15 11 12 15 15 15 16 16 16 16 15 15 15 14 14 14 14 14 14 14 14 15 15 15 15 16 16 16 16 16 16 16 15 14 14 14 14 15 15 16 17 18 18 18 18
Wind_Direction
275 275 277 280 274 263 255 248 243 243 248 251 252 252 253 254 255 256 258 261 265 269 274 277 280 282 284 284 282 280 278 276 272 267 262 258 254 253 253 253 252 250 249 248 248 247 246 244 240 234 230 231 235 242 246 248 247 245 245 248 253 259
278 277 277 280 275 268 268 263 257 253 251 252 252 251 250 251 253 255 259 263 268 272 276 279 281 283 284 283 282 281 279 276 271 265 260 256 252 251 251 253 253 252 251 252 252 251 249 247 243 237 231 230 233 238 244 247 247 245 243 243 247 253
280 284 284 281 277 275 274 267 258 252 250 248 247 246 247 249 253 257 262 266 270 274 276 279 280 282 283 282 281 280 279 276 270 263 258 254 251 249 249 251 253 253 253 253 255 254 253 249 245 239 232 229 231 235 240 245 246 245 243 241 242 247
279 285 290 285 277 271 264 257 252 249 247 243 241 243 246 250 255 259 264 268 271 273 275 278 280 282 282 281 280 280 279 276 271 264 259 253 249 248 248 250 253 253 254 254 255 255 253 249 245 241 233 228 229 233 237 242 244 245 244 241 240 241
275 279 282 275 268 259 250 246 244 243 241 239 239 242 247 252 256 260 263 266 269 271 274 277 280 282 281 280 279 278 275 273 271 267 262 255 250 248 247 247 249 251 252 253 253 253 252 249 244 240 234 229 228 230 234 238 241 243 244 242 239 237
262 269 269 259 252 247 241 241 241 239 238 240 243 248 252 256 259 261 263 266 270 272 275 278 280 281 280 279 277 274 271 269 268 266 263 258 253 250 246 245 246 248 251 252 253 253 253 250 245 240 235 230 227 228 230 235 238 240 243 243 240 236
240 251 255 250 246 246 245 245 244 243 244 248 252 256 258 259 260 263 265 269 272 275 277 279 280 280 279 278 275 272 269 268 266 264 262 259 255 251 247 246 246 249 252 254 254 254 254 251 247 244 240 234 229 228 229 231 235 238 240 242 241 238
222 238 244 245 245 248 250 249 249 249 251 253 254 256 257 259 262 265 269 272 275 277 279 280 280 280 280 278 274 271 268 266 264 262 260 258 255 252 248 246 247 250 253 255 256 256 255 254 252 247 244 239 231 228 230 230 232 235 238 240 241 240
231 239 240 242 244 247 250 249 250 252 252 253 253 256 259 262 266 270 273 275 278 279 279 279 278 277 277 274 269 266 264 260 260 261 259 256 253 250 247 244 245 247 251 254 256 257 256 256 256 252 246 241 232 228 229 230 231 232 235 238 240 242
250 238 240 241 242 246 250 253 255 255 254 254 256 260 264 268 272 275 276 277 277 277 277 276 273 271 269 265 262 260 258 255 256 256 253 249 246 243 241 239 239 242 247 251 255 257 257 257 256 255 250 243 237 231 230 229 229 231 234 236 239 242
245 230 235 235 239 250 260 263 260 256 255 257 260 264 269 271 274 274 275 275 275 274 273 270 267 265 262 259 256 255 252 251 251 249 245 241 238 235 234 235 236 239 243 248 252 256 257 256 254 255 252 247 244 241 238 233 227 229 235 237 239 242
224 226 231 236 245 259 266 264 258 257 259 262 265 267 270 271 272 273 273 274 274 274 271 268 267 265 262 257 253 251 249 248 246 244 241 238 235 232 232 234 237 239 242 246 250 252 255 256 256 256 254 250 248 247 249 245 235 234 240 243 245 247
223 223 231 241 250 260 261 259 258 262 265 267 268 269 271 271 272 273 273 274 274 273 271 271 273 271 266 260 255 253 253 251 248 245 241 239 236 234 234 235 238 241 244 246 249 252 253 256 258 259 257 253 251 248 249 249 245 244 246 248 250 252
231 221 228 239 246 253 256 259 261 265 267 269 269 270 271 272 274 275 275 275 273 272 272 273 275 272 270 267 260 255 254 251 249 246 244 244 241 239 238 237 239 242 245 248 250 254 255 256 257 257 258 255 251 247 243 243 243 245 247 248 251 253
224 222 228 235 240 250 257 261 263 266 267 268 269 269 270 272 275 276 277 276 274 273 274 274 274 273 272 268 263 258 254 251 248 245 244 244 243 242 241 240 240 240 243 248 252 256 258 256 254 253 255 254 250 246 243 241 240 242 244 246 249 252
211 222 228 231 240 254 260 263 265 268 270 272 273 273 273 275 277 278 278 277 276 275 274 273 273 272 269 266 266 263 259 255 251 248 245 243 242 242 244 242 241 241 243 249 253 256 258 257 254 251 251 251 250 249 247 243 240 239 241 245 248 251
201 217 227 234 248 260 263 265 267 271 274 278 279 279 279 279 280 280 279 278 278 277 275 273 270 269 269 269 269 266 263 259 253 250 248 247 244 243 246 246 243 244 246 250 253 254 255 256 254 250 248 248 249 249 248 244 242 240 241 246 250 253
191 210 229 244 257 262 264 266 267 271 276 280 282 282 281 281 282 281 280 279 279 277 275 274 271 268 268 268 266 264 263 260 256 251 249 248 245 247 252 251 247 246 248 251 253 254 254 255 254 250 246 245 247 249 250 247 245 245 245 249 253 255
203 204 225 248 261 264 265 268 270 273 275 278 280 280 281 283 283 283 282 280 279 277 275 274 272 269 267 265 263 264 264 261 256 252 248 246 245 249 251 250 251 249 247 251 254 255 256 256 256 253 248 246 246 247 250 250 249 248 248 251 255 257
239 182 212 243 256 260 264 266 268 270 271 273 274 277 282 284 284 283 282 280 279 277 275 274 273 269 267 266 264 265 266 261 254 250 249 245 244 247 245 245 253 250 243 249 256 258 259 259 259 256 252 249 247 246 248 250 251 251 251 253 257 258
274 247 220 235 247 252 258 262 264 266 267 269 271 277 284 288 288 284 280 279 277 275 273 273 271 269 266 264 263 263 263 260 253 248 247 245 246 249 247 246 254 252 242 246 256 261 261 261 261 258 256 253 250 249 249 251 254 256 257 258 260 261
277 263 231 238 245 250 257 262 266 267 269 274 277 281 286 291 293 290 285 281 279 276 273 271 269 267 264 262 261 260 259 258 254 249 246 245 246 250 253 252 254 254 249 248 255 261 260 259 261 259 258 256 253 253 253 254 256 259 261 262 264 264
268 255 241 242 245 251 258 263 268 271 276 281 284 285 285 288 291 293 292 288 285 281 275 271 269 267 264 261 260 259 259 257 255 252 248 247 247 250 254 254 253 254 252 250 255 261 261 260 261 261 261 259 256 255 255 256 258 259 260 261 264 264
262 253 245 242 243 249 256 262 268 274 280 282 284 285 282 281 284 292 298 296 293 288 281 275 270 267 265 262 260 258 258 258 257 254 251 249 249 250 252 253 254 254 255 255 256 260 262 261 262 263 263 262 259 256 255 257 259 259 258 259 261 261
256 251 246 245 248 253 258 263 269 275 280 281 281 282 283 279 280 289 300 301 298 294 289 283 275 269 265 262 260 258 257 257 257 255 253 251 250 250 251 253 254 255 258 259 259 260 263 264 265 265 262 261 260 259 259 259 259 259 258 258 257 256
251 247 247 248 253 258 262 265 271 278 283 283 281 280 282 281 280 286 294 299 300 297 293 288 282 274 268 264 260 257 255 254 254 254 254 253 252 252 252 254 256 257 259 261 262 262 263 264 265 265 264 262 261 261 262 261 261 261 260 259 258 255
245 243 243 247 254 260 264 269 276 282 286 285 279 272 272 276 278 280 286 294 299 298 294 288 282 276 270 265 260 256 253 251 251 251 253 254 254 255 255 256 257 259 260 261 262 262 262 261 261 262 265 265 263 263 262 259 259 261 261 260 259 256
240 244 246 250 256 262 267 273 278 282 285 286 278 266 262 268 273 274 278 290 299 299 294 288 280 273 267 263 259 255 251 249 248 249 250 252 254 255 256 258 258 259 261 261 262 262 261 261 260 260 262 264 265 264 262 259 257 259 259 258 258 257
243 252 257 262 265 267 270 274 276 278 280 284 280 268 261 262 267 266 269 285 297 298 294 287 279 271 264 259 256 252 248 246 245 245 246 247 250 253 254 256 257 259 260 261 262 263 262 262 261 261 262 263 263 262 261 261 260 259 258 257 257 258
255 262 268 270 271 271 272 273 273 275 277 281 286 278 264 259 261 263 273 287 293 294 293 286 278 272 265 259 255 251 247 243 242 241 241 242 244 247 250 252 255 257 259 260 262 263 263 263 263 262 263 263 264 264 265 266 265 261 258 257 257 258
261 263 265 266 267 267 267 268 269 273 276 280 285 281 268 262 264 271 281 287 288 289 293 287 278 272 266 262 258 254 249 245 241 240 239 239 241 244 248 250 253 257 259 261 262 262 263 263 263 263 263 263 266 268 269 269 267 265 265 263 261 259
261 259 259 258 258 259 260 263 265 268 273 279 282 279 270 267 270 279 287 287 281 282 291 290 281 271 263 260 259 256 253 248 244 242 240 240 241 243 246 249 252 255 258 261 263 264 264 265 264 264 263 263 265 268 269 269 269 269 270 269 266 263
260 258 258 257 258 260 262 265 268 269 273 277 280 275 269 270 274 281 287 283 271 272 286 293 287 273 262 257 257 257 254 251 247 244 243 242 242 243 245 247 250 253 256 258 261 263 265 267 267 267 267 266 265 266 268 268 268 268 268 267 266 264
264 264 266 267 268 270 271 270 269 268 269 272 278 277 272 273 277 281 282 274 265 268 282 293 292 280 267 259 257 257 254 251 248 245 244 245 245 245 246 246 248 251 254 257 259 262 264 267 269 270 270 270 269 268 268 267 267 267 267 267 266 265
269 270 272 273 272 274 277 270 262 261 260 263 273 277 273 272 276 280 275 265 262 270 281 290 292 284 272 263 260 259 257 254 249 246 246 247 249 250 250 250 249 250 251 253 255 258 260 263 265 268 269 270 270 270 270 270 270 270 270 270 270 269
273 269 270 272 272 276 279 270 261 261 259 263 272 271 264 266 273 273 267 263 267 275 283 289 291 286 275 266 262 260 259 257 253 251 250 250 252 253 254 256 256 256 256 256 256 256 256 258 259 262 265 266 268 269 270 270 270 271 272 272 273 273
279 275 274 279 281 280 283 280 272 270 269 272 273 264 258 263 266 261 260 270 271 274 281 286 288 283 275 267 263 260 259 258 256 254 253 252 254 256 258 260 261 262 263 263 264 263 262 261 260 261 262 264 267 269 271 272 272 272 272 273 274 276
Height
5807 5807 5808 5808 5808 5808 5808 5809 5809 5810 5811 5812 5812 5813 5813 5814 5814 5814 5815 5815 5815 5815 5816 5816 5816 5816 5816 5816 5816 5816 5816 5816 5816 5816 5815 5816 5816 5816 5816 5816 5816 5817 5818 5819 5821 5822 5824 5825 5826 5828 5829 5829 5829 5830 5830 5830 5831 5833 5834 5834 5834 5834
5805 5805 5805 5806 5807 5807 5807 5808 5808 5809 5809 5809 5810 5810 5811 5812 5812 5812 5812 5813 5813 5814 5814 5814 5814 5814 5814 5814 5814 5814 5814 5814 5814 5813 5813 5814 5814 5813 5814 5814 5814 5815 5816 5817 5818 5820 5822 5823 5824 5825 5827 5827 5828 5828 5828 5829 5830 5831 5832 5833 5833 5834
5802 5803 5803 5804 5805 5805 5806 5806 5806 5806 5807 5807 5808 5808 5809 5810 5810 5811 5811 5811 5812 5812 5812 5812 5812 5812 5812 5811 5811 5811 5811 5811 5811 5811 5811 5811 5811 5811 5812 5812 5813 5813 5814 5815 5816 5818 5819 5821 5822 5823 5824 5825 5826 5826 5827 5827 5828 5829 5830 5831 5832 5832
5800 5800 5801 5801 5802 5803 5803 5804 5804 5804 5805 5805 5805 5806 5808 5808 5809 5809 5809 5810 5810 5810 5809 5809 5809 5809 5809 5808 5809 5809 5808 5808 5808 5809 5809 5809 5809 5809 5810 5810 5811 5811 5812 5813 5814 5815 5816 5818 5819 5821 5822 5823 5824 5824 5825 5826 5826 5827 5828 5829 5830 5831
5797 5798 5799 5799 5800 5800 5800 5801 5802 5802 5803 5803 5804 5805 5806 5807 5807 5807 5807 5807 5807 5807 5807 5807 5807 5807 5806 5806 5806 5806 5806 5806 5806 5807 5807 5807 5807 5808 5808 5809 5809 5810 5810 5811 5811 5812 5814 5815 5816 5818 5819 5820 5821 5822 5823 5824 5825 5825 5826 5827 5828 5829
5794 5795 5796 5797 5798 5798 5798 5799 5800 5800 5801 5802 5802 5803 5804 5805 5805 5805 5805 5805 5805 5805 5805 5805 5805 5804 5804 5804 5804 5803 5803 5803 5804 5804 5805 5805 5806 5806 5807 5807 5808 5808 5808 5809 5809 5810 5811 5812 5814 5815 5817 5818 5819 5820 5821 5821 5822 5823 5824 5824 5825 5826
5791 5793 5794 5795 5796 5796 5797 5798 5799 5799 5800 5801 5801 5802 5802 5802 5802 5802 5803 5803 5803 5803 5803 5803 5803 5802 5801 5801 5801 5801 5801 5801 5802 5803 5803 5803 5804 5805 5806 5806 5806 5807 5807 5807 5807 5808 5809 5810 5812 5813 5814 5816 5817 5818 5818 5819 5820 5821 5821 5822 5822 5823
5789 5791 5792 5793 5794 5795 5796 5797 5797 5798 5799 5799 5799 5800 5800 5800 5800 5800 5801 5801 5801 5801 5801 5801 5800 5800 5799 5798 5798 5798 5798 5799 5800 5800 5801 5802 5803 5804 5804 5805 5805 5805 5805 5805 5806 5807 5808 5808 5809 5811 5812 5813 5815 5816 5816 5817 5817 5818 5819 5819 5820 5820
5789 5789 5791 5792 5793 5794 5795 5795 5796 5796 5797 5797 5798 5798 5798 5798 5799 5799 5799 5799 5799 5799 5799 5799 5798 5797 5797 5796 5796 5796 5796 5796 5797 5798 5798 5799 5800 5801 5802 5803 5803 5804 5804 5804 5805 5805 5806 5807 5807 5809 5810 5811 5813 5813 5813 5814 5815 5816 5816 5817 5817 5818
5788 5789 5790 5791 5793 5794 5794 5794 5794 5795 5795 5796 5796 5796 5796 5797 5797 5797 5797 5797 5797 5797 5797 5796 5795 5795 5794 5794 5794 5794 5794 5794 5795 5795 5796 5797 5797 5799 5799 5800 5801 5801 5802 5803 5803 5803 5804 5805 5805 5806 5808 5809 5810 5811 5811 5811 5812 5813 5814 5814 5815 5816
5786 5788 5789 5790 5792 5792 5792 5792 5793 5793 5794 5794 5794 5795 5795 5795 5795 5795 5795 5795 5795 5795 5795 5794 5793 5792 5792 5792 5792 5792 5792 5792 5792 5793 5793 5794 5795 5796 5796 5797 5798 5799 5800 5800 5801 5802 5802 5802 5803 5804 5806 5807 5808 5808 5808 5809 5809 5810 5811 5812 5813 5813
5785 5786 5787 5789 5790 5790 5790 5791 5791 5792 5792 5793 5793 5793 5794 5794 5794 5794 5794 5794 5794 5794 5792 5791 5791 5792 5791 5790 5790 5790 5790 5790 5790 5790 5791 5792 5793 5793 5794 5795 5796 5797 5797 5798 5799 5799 5800 5800 5801 5802 5804 5805 5805 5806 5806 5807 5807 5808 5809 5810 5811 5811
5784 5785 5786 5788 5789 5789 5789 5789 5790 5791 5791 5791 5792 5792 5792 5793 5793 5793 5793 5793 5793 5792 5790 5790 5791 5791 5790 5789 5789 5789 5790 5790 5789 5789 5789 5790 5791 5792 5792 5793 5794 5794 5795 5796 5796 5797 5798 5799 5800 5801 5802 5803 5804 5804 5804 5805 5805 5806 5807 5808 5809 5809
5783 5784 5785 5786 5787 5787 5788 5788 5789 5790 5790 5790 5791 5791 5791 5792 5792 5791 5791 5791 5791 5790 5789 5790 5790 5790 5789 5788 5788 5788 5789 5788 5788 5788 5789 5789 5790 5790 5791 5791 5792 5792 5793 5794 5795 5795 5796 5797 5798 5799 5800 5801 5802 5802 5803 5803 5804 5805 5805 5806 5806 5807
5782 5784 5784 5785 5785 5786 5787 5787 5788 5789 5789 5789 5790 5790 5790 5790 5790 5790 5790 5790 5789 5788 5788 5788 5788 5788 5788 5787 5787 5787 5786 5786 5786 5786 5787 5788 5789 5789 5789 5789 5790 5791 5791 5792 5793 5794 5795 5796 5796 5797 5798 5798 5799 5800 5801 5801 5802 5802 5803 5803 5804 5805
5782 5783 5784 5784 5785 5785 5786 5786 5787 5787 5788 5788 5788 5789 5789 5789 5789 5788 5788 5788 5787 5787 5787 5787 5787 5787 5787 5786 5785 5785 5784 5784 5784 5785 5787 5787 5788 5788 5788 5788 5789 5790 5790 5790 5791 5792 5793 5794 5794 5795 5795 5796 5797 5798 5799 5799 5800 5800 5801 5801 5802 5802
5781 5783 5783 5783 5784 5784 5785 5785 5786 5786 5786 5787 5787 5787 5787 5787 5787 5787 5786 5786 5785 5785 5785 5786 5786 5785 5785 5784 5784 5783 5783 5783 5783 5785 5786 5787 5786 5786 5786 5787 5788 5789 5789 5789 5789 5790 5791 5791 5792 5793 5793 5794 5794 5795 5796 5797 5797 5798 5799 5799 5800 5800
5781 5782 5782 5782 5782 5783 5783 5784 5784 5785 5785 5785 5786 5786 5786 5786 5785 5785 5785 5784 5784 5784 5784 5784 5784 5784 5783 5783 5782 5782 5781 5782 5783 5785 5785 5785 5784 5784 5785 5786 5787 5787 5787 5787 5788 5788 5789 5789 5789 5790 5791 5792 5792 5793 5793 5794 5795 5796 5797 5797 5797 5798
5780 5780 5780 5780 5781 5782 5782 5782 5783 5783 5784 5784 5784 5785 5785 5784 5784 5784 5783 5783 5782 5782 5782 5782 5782 5782 5781 5781 5780 5780 5780 5780 5782 5783 5783 5783 5782 5782 5783 5784 5785 5786 5786 5786 5786 5786 5787 5787 5787 5788 5789 5790 5791 5791 5792 5792 5793 5794 5794 5794 5795 5795
5778 5778 5778 5779 5780 5781 5781 5781 5782 5782 5783 5783 5783 5783 5783 5783 5783 5782 5782 5781 5781 5781 5781 5780 5780 5780 5779 5779 5779 5779 5779 5779 5780 5781 5782 5781 5780 5781 5782 5782 5783 5784 5785 5785 5785 5785 5785 5785 5786 5786 5787 5788 5789 5790 5790 5790 5791 5791 5792 5792 5792 5793
5776 5776 5777 5778 5779 5780 5780 5780 5781 5781 5782 5782 5782 5781 5781 5781 5781 5781 5781 5780 5780 5780 5779 5779 5778 5778 5778 5777 5777 5778 5778 5778 5779 5780 5780 5780 5779 5778 5779 5781 5782 5783 5783 5784 5782 5783 5784 5784 5784 5785 5785 5786 5787 5788 5788 5788 5788 5789 5789 5790 5790 5791
5775 5775 5776 5777 5778 5779 5779 5779 5779 5780 5780 5780 5780 5779 5779 5779 5779 5779 5779 5779 5778 5778 5777 5777 5777 5777 5776 5776 5776 5776 5776 5777 5777 5778 5778 5778 5778 5776 5777 5779 5781 5781 5782 5782 5781 5781 5782 5783 5783 5783 5784 5784 5785 5786 5787 5787 5787 5787 5787 5788 5789 5789
5774 5774 5775 5776 5777 5778 5778 5777 5777 5777 5777 5777 5777 5777 5777 5777 5777 5777 5777 5777 5776 5776 5776 5776 5775 5775 5775 5775 5775 5775 5775 5775 5776 5776 5777 5777 5777 5776 5776 5778 5779 5780 5781 5781 5779 5779 5780 5781 5781 5782 5782 5782 5783 5784 5785 5785 5785 5785 5786 5786 5786 5787
5773 5774 5774 5775 5775 5776 5776 5776 5775 5774 5774 5774 5775 5775 5775 5775 5775 5775 5775 5775 5774 5774 5774 5774 5774 5773 5773 5773 5773 5773 5773 5774 5774 5774 5775 5776 5776 5775 5776 5776 5778 5778 5779 5779 5779 5778 5778 5779 5779 5780 5780 5780 5781 5782 5782 5783 5783 5784 5784 5784 5784 5784
5772 5773 5773 5773 5774 5774 5774 5774 5773 5773 5772 5772 5773 5773 5773 5774 5773 5773 5773 5773 5773 5772 5772 5772 5772 5771 5772 5772 5772 5772 5772 5772 5772 5773 5773 5774 5774 5775 5775 5775 5775 5776 5776 5777 5777 5778 5777 5777 5778 5778 5778 5778 5779 5779 5780 5781 5781 5782 5782 5782 5782 5782
5771 5771 5772 5772 5772 5772 5772 5772 5772 5771 5771 5771 5771 5771 5772 5772 5771 5771 5770 5770 5771 5771 5771 5770 5770 5769 5769 5770 5770 5770 5770 5770 5770 5771 5771 5772 5773 5773 5773 5773 5773 5773 5774 5774 5775 5775 5775 5776 5776 5776 5776 5777 5777 5777 5778 5779 5779 5780 5780 5780 5779 5780
5768 5769 5769 5770 5770 5770 5771 5771 5770 5770 5770 5769 5769 5770 5770 5770 5769 5769 5769 5768 5768 5769 5769 5769 5768 5768 5767 5767 5768 5768 5768 5768 5768 5769 5769 5770 5770 5770 5770 5770 5770 5771 5771 5772 5772 5773 5773 5774 5775 5774 5774 5775 5775 5776 5775 5776 5777 5777 5778 5778 5777 5777
5766 5767 5768 5768 5769 5769 5769 5769 5768 5768 5768 5767 5767 5767 5768 5768 5768 5768 5767 5767 5767 5767 5767 5767 5767 5766 5766 5766 5766 5766 5766 5766 5767 5767 5767 5768 5768 5768 5768 5768 5768 5769 5769 5769 5770 5770 5771 5772 5772 5773 5773 5773 5773 5773 5772 5773 5774 5775 5776 5776 5774 5775
5765 5766 5766 5767 5767 5767 5767 5766 5766 5765 5765 5764 5764 5765 5765 5766 5766 5766 5766 5766 5766 5765 5765 5765 5765 5765 5764 5764 5764 5764 5765 5765 5765 5765 5766 5766 5766 5766 5766 5766 5766 5767 5767 5767 5768 5768 5769 5769 5770 5770 5771 5771 5770 5769 5769 5770 5771 5772 5772 5772 5772 5772
5765 5765 5764 5764 5764 5764 5764 5763 5763 5763 5763 5763 5763 5763 5763 5763 5764 5764 5765 5764 5764 5764 5764 5763 5763 5763 5762 5762 5763 5763 5763 5763 5763 5763 5764 5764 5764 5764 5764 5764 5764 5764 5765 5765 5766 5766 5767 5767 5768 5768 5769 5768 5767 5767 5767 5768 5768 5768 5769 5769 5770 5770
5762 5762 5761 5761 5761 5760 5760 5760 5760 5760 5761 5761 5761 5761 5761 5761 5761 5762 5762 5762 5762 5762 5762 5762 5761 5761 5760 5760 5760 5761 5761 5761 5761 5761 5761 5762 5762 5762 5762 5762 5762 5762 5763 5764 5764 5765 5765 5765 5766 5766 5766 5766 5765 5765 5766 5766 5766 5766 5767 5767 5768 5768
5758 5758 5757 5756 5756 5756 5757 5757 5758 5758 5759 5759 5760 5759 5759 5759 5759 5759 5759 5760 5760 5760 5760 5760 5760 5759 5759 5758 5758 5758 5759 5759 5759 5759 5759 5759 5759 5759 5759 5759 5759 5760 5760 5761 5762 5762 5763 5763 5763 5763 5763 5764 5763 5763 5763 5763 5763 5764 5764 5765 5765 5765
5753 5752 5752 5752 5753 5753 5754 5756 5756 5757 5757 5757 5757 5757 5757 5757 5757 5756 5756 5757 5757 5757 5758 5758 5758 5757 5757 5757 5756 5756 5756 5756 5756 5756 5756 5757 5757 5757 5757 5757 5757 5757 5758 5759 5759 5760 5760 5760 5761 5761 5761 5761 5761 5761 5761 5761 5761 5761 5761 5762 5762 5762
5749 5749 5750 5750 5751 5752 5753 5754 5754 5754 5755 5755 5755 5755 5755 5755 5754 5754 5754 5754 5754 5755 5755 5755 5755 5755 5755 5755 5755 5754 5754 5754 5753 5754 5754 5754 5755 5755 5755 5755 5755 5755 5755 5756 5756 5757 5757 5758 5758 5758 5758 5758 5759 5759 5759 5759 5759 5759 5759 5759 5759 5760
5747 5748 5749 5749 5749 5750 5750 5751 5751 5751 5752 5752 5753 5753 5752 5752 5752 5752 5752 5752 5752 5753 5753 5753 5753 5753 5753 5753 5753 5752 5752 5751 5751 5751 5751 5752 5752 5753 5753 5753 5753 5753 5753 5753 5754 5754 5755 5755 5755 5755 5756 5756 5756 5756 5756 5756 5757 5757 5757 5757 5757 5757
5746 5746 5747 5746 5747 5747 5747 5747 5748 5748 5749 5749 5750 5749 5749 5749 5749 5750 5750 5750 5750 5750 5751 5751 5751 5751 5751 5750 5750 5750 5750 5750 5749 5749 5749 5749 5750 5751 5751 5751 5751 5751 5752 5752 5752 5752 5753 5753 5753 5753 5753 5753 5753 5754 5754 5754 5754 5754 5754 5755 5755 5755
5744 5743 5744 5745 5745 5746 5746 5746 5746 5746 5747 5747 5746 5746 5746 5746 5747 5747 5747 5748 5748 5748 5748 5748 5749 5749 5749 5748 5748 5748 5748 5748 5748 5748 5748 5748 5749 5749 5749 5750 5750 5750 5750 5751 5751 5751 5751 5751 5751 5751 5751 5751 5751 5751 5752 5752 5752 5752 5752 5752 5752 5752